ARIANE 2 DEB

基本信息
目录编号:
23966
目录名称:
ARIANE 2 DEB
国际标识:
1988-098F
轨道中心:
EARTH
物体状态:
在轨
发射日期:
1988-10-28 UTC
轨道信息
数据来源: 国际轨道数据
星历时间: 2026-06-05T03:06:33+0800
半长轴: 9602.689km
偏心率: 0.3162604
轨道倾角: 3.410°
近地点辐角: 91.514°
升交点赤经: 235.355°
平近点角: 304.330°
近地点: 187.601km
远地点: 6261.503km
周期: 156.081分钟
每日圈数: 9.226001
详细信息
发射场:
FRGUI
轨道高度:
LEO
数据来源:
AOE Integration Group
参考系:
TEME
时间系统:
UTC
历元类型:
SGP4
2D轨道图
3D轨道图
轨道高度分析图
轨道倾角分析图
轨道综合分析图
查看轨道综合分析图